�������l�o���
Date,Time,MP-1(��Sv/h),MP-2(��Sv/h),MP-3(��Sv/h),MP-4(��Sv/h),MP-5(��Sv/h),MP-6(��Sv/h),MP-7(��Sv/h),MP-8(��Sv/h),����,����(m/s),���J
2018/09/16,00:00,0.781,1.167,0.823,1.457,1.060,0.461,0.805,0.765,�k��,3.0,��
2018/09/16,00:10,0.781,1.168,0.827,1.457,1.060,0.459,0.808,0.764,�k��,3.4,��
2018/09/16,00:20,0.779,1.167,0.824,1.457,1.059,0.461,0.805,0.766,�k�k��,3.4,��
2018/09/16,00:30,0.781,1.165,0.826,1.459,1.060,0.460,0.806,0.762,�k�k��,3.0,��
2018/09/16,00:40,0.781,1.169,0.825,1.455,1.061,0.461,0.807,0.766,�k�k��,3.0,��
2018/09/16,00:50,0.780,1.168,0.825,1.457,1.060,0.461,0.805,0.765,�k�k��,3.1,��
2018/09/16,01:00,0.780,1.169,0.825,1.457,1.060,0.461,0.806,0.765,�k��,3.0,��
2018/09/16,01:10,0.780,1.168,0.825,1.458,1.060,0.461,0.807,0.765,�k�k��,2.5,��
2018/09/16,01:20,0.781,1.164,0.826,1.461,1.060,0.463,0.807,0.763,�k�k��,3.2,��
2018/09/16,01:30,0.782,1.167,0.825,1.458,1.060,0.462,0.808,0.764,�k�k��,4.0,��
2018/09/16,01:40,0.780,1.167,0.825,1.460,1.060,0.462,0.806,0.765,�k�k��,3.9,��
2018/09/16,01:50,0.780,1.168,0.826,1.460,1.060,0.462,0.808,0.765,�k�k��,3.9,��
2018/09/16,02:00,0.780,1.169,0.825,1.458,1.059,0.461,0.808,0.764,�k�k��,4.4,��
2018/09/16,02:10,0.780,1.168,0.825,1.456,1.060,0.461,0.804,0.763,�k�k��,5.2,��
2018/09/16,02:20,0.780,1.167,0.826,1.458,1.061,0.462,0.808,0.765,�k�k��,4.9,��
2018/09/16,02:30,0.782,1.166,0.823,1.459,1.058,0.462,0.806,0.766,�k�k��,4.7,��
2018/09/16,02:40,0.780,1.169,0.825,1.459,1.059,0.460,0.808,0.763,�k�k��,4.9,��
2018/09/16,02:50,0.783,1.167,0.823,1.455,1.061,0.461,0.805,0.764,�k�k��,4.7,��
2018/09/16,03:00,0.782,1.168,0.826,1.458,1.061,0.460,0.806,0.763,�k�k��,4.2,��
2018/09/16,03:10,0.782,1.167,0.824,1.456,1.060,0.461,0.807,0.765,�k�k��,3.9,��
2018/09/16,03:20,0.781,1.165,0.825,1.459,1.060,0.461,0.807,0.766,�k�k��,3.3,�L
2018/09/16,03:30,0.782,1.168,0.826,1.462,1.061,0.461,0.807,0.763,�k�k��,3.2,�L
2018/09/16,03:40,0.780,1.168,0.825,1.460,1.061,0.461,0.806,0.765,�k�k��,3.5,�L
2018/09/16,03:50,0.781,1.169,0.824,1.459,1.060,0.460,0.806,0.765,�k�k��,3.5,��
2018/09/16,04:00,0.778,1.167,0.826,1.457,1.061,0.461,0.806,0.764,�k�k��,3.5,��
2018/09/16,04:10,0.780,1.168,0.824,1.460,1.059,0.462,0.806,0.765,�k��,3.3,��
2018/09/16,04:20,0.779,1.168,0.824,1.460,1.058,0.461,0.805,0.765,�k�k��,3.1,��
2018/09/16,04:30,0.780,1.167,0.826,1.459,1.059,0.460,0.807,0.765,�k�k��,3.2,��
2018/09/16,04:40,0.779,1.168,0.826,1.457,1.061,0.462,0.804,0.764,�k�k��,3.2,��
2018/09/16,04:50,0.780,1.167,0.825,1.457,1.058,0.460,0.806,0.766,�k�k��,3.5,��
2018/09/16,05:00,0.780,1.165,0.825,1.457,1.058,0.460,0.806,0.764,�k�k��,3.4,��
2018/09/16,05:10,0.780,1.164,0.826,1.457,1.060,0.460,0.805,0.765,�k��,3.6,��
2018/09/16,05:20,0.782,1.167,0.826,1.460,1.059,0.461,0.807,0.766,�k��,2.9,��
2018/09/16,05:30,0.783,1.168,0.827,1.460,1.061,0.460,0.806,0.766,�k�k��,3.9,��
2018/09/16,05:40,0.782,1.168,0.826,1.461,1.060,0.460,0.805,0.765,�k��,3.6,��
2018/09/16,05:50,0.782,1.169,0.828,1.461,1.061,0.460,0.805,0.765,�k�k��,3.8,��
2018/09/16,06:00,0.780,1.168,0.826,1.458,1.061,0.460,0.807,0.763,�k�k��,4.6,��
2018/09/16,06:10,0.780,1.169,0.827,1.460,1.059,0.460,0.805,0.764,�k�k��,4.1,��
2018/09/16,06:20,0.782,1.167,0.827,1.461,1.061,0.460,0.807,0.765,�k�k��,3.4,��
2018/09/16,06:30,0.780,1.168,0.826,1.459,1.061,0.460,0.806,0.764,�k�k��,4.2,��
2018/09/16,06:40,0.780,1.169,0.827,1.463,1.061,0.460,0.807,0.766,�k�k��,3.4,��
2018/09/16,06:50,0.781,1.169,0.827,1.462,1.061,0.461,0.805,0.765,�k��,3.3,��
2018/09/16,07:00,0.780,1.168,0.828,1.460,1.060,0.460,0.807,0.765,�k��,3.4,��
2018/09/16,07:10,0.781,1.168,0.827,1.460,1.062,0.462,0.807,0.764,�k��,3.4,��
2018/09/16,07:20,0.782,1.168,0.826,1.459,1.060,0.462,0.807,0.766,�k��,3.0,��
2018/09/16,07:30,0.779,1.170,0.825,1.462,1.062,0.462,0.806,0.765,�k��,2.5,��
2018/09/16,07:40,0.781,1.170,0.825,1.461,1.061,0.461,0.806,0.763,�k�k��,2.0,��
2018/09/16,07:50,0.781,1.168,0.824,1.459,1.060,0.459,0.808,0.765,�k,2.3,��
2018/09/16,08:00,0.781,1.166,0.824,1.460,1.060,0.461,0.807,0.765,�k,1.9,��
2018/09/16,08:10,0.778,1.169,0.825,1.460,1.059,0.460,0.808,0.764,�k�k��,1.9,��
2018/09/16,08:20,0.778,1.165,0.826,1.460,1.058,0.460,0.806,0.763,�k,1.5,��
2018/09/16,08:30,0.780,1.164,0.826,1.461,1.060,0.460,0.805,0.763,�k,1.4,��
2018/09/16,08:40,0.780,1.166,0.825,1.459,1.062,0.459,0.806,0.764,�k�k��,1.5,��
2018/09/16,08:50,0.781,1.168,0.825,1.460,1.060,0.459,0.808,0.761,�k�k��,0.8,��
2018/09/16,09:00,0.781,1.166,0.825,1.461,1.061,0.460,0.808,0.762,�k�k��,1.4,��
2018/09/16,09:10,0.780,1.167,0.825,1.460,1.059,0.460,0.807,0.761,�k�k��,1.4,��
2018/09/16,09:20,0.782,1.167,0.826,1.460,1.063,0.461,0.807,0.763,���k��,1.7,��
2018/09/16,09:30,0.781,1.166,0.827,1.462,1.060,0.460,0.807,0.763,���쓌,0.9,��
2018/09/16,09:40,0.782,1.167,0.823,1.462,1.062,0.462,0.808,0.763,�쓌,1.7,��
2018/09/16,09:50,0.781,1.168,0.824,1.462,1.062,0.459,0.808,0.764,��,1.7,��
2018/09/16,10:00,0.781,1.167,0.824,1.460,1.063,0.461,0.810,0.763,���k��,2.6,��
2018/09/16,10:10,0.782,1.172,0.825,1.462,1.063,0.461,0.809,0.764,���k��,2.6,��
2018/09/16,10:20,0.782,1.172,0.824,1.462,1.064,0.461,0.807,0.765,���k��,3.0,��
2018/09/16,10:30,0.782,1.174,0.824,1.463,1.062,0.459,0.808,0.765,���k��,3.5,��
2018/09/16,10:40,0.781,1.170,0.826,1.464,1.064,0.461,0.807,0.764,���k��,3.5,��
2018/09/16,10:50,0.782,1.171,0.826,1.463,1.064,0.463,0.808,0.764,���k��,3.6,��
2018/09/16,11:00,0.783,1.171,0.826,1.459,1.063,0.462,0.808,0.764,��,3.5,��
2018/09/16,11:10,0.783,1.174,0.828,1.461,1.065,0.460,0.808,0.766,���k��,3.7,��
2018/09/16,11:20,0.782,1.173,0.826,1.462,1.065,0.462,0.810,0.765,��,3.5,��
2018/09/16,11:30,0.783,1.174,0.826,1.462,1.066,0.463,0.808,0.765,���k��,3.7,��
2018/09/16,11:40,0.783,1.175,0.827,1.463,1.064,0.462,0.809,0.766,���k��,3.4,��
2018/09/16,11:50,0.784,1.173,0.826,1.461,1.064,0.463,0.809,0.764,���k��,2.8,��
2018/09/16,12:00,0.782,1.175,0.826,1.461,1.065,0.463,0.809,0.763,���k��,2.8,��
2018/09/16,12:10,0.783,1.175,0.827,1.461,1.066,0.462,0.809,0.764,���k��,2.3,��
2018/09/16,12:20,0.783,1.175,0.828,1.459,1.066,0.460,0.810,0.764,�k��,2.5,��
2018/09/16,12:30,0.784,1.176,0.827,1.461,1.066,0.461,0.808,0.764,���k��,2.6,��
2018/09/16,12:40,0.785,1.174,0.826,1.463,1.065,0.462,0.809,0.764,��,2.0,��
2018/09/16,12:50,0.784,1.173,0.827,1.463,1.068,0.462,0.810,0.764,��,2.2,��
2018/09/16,13:00,0.784,1.176,0.827,1.463,1.068,0.463,0.810,0.766,��,2.0,��
2018/09/16,13:10,0.784,1.175,0.828,1.464,1.065,0.463,0.809,0.764,��,2.6,��
2018/09/16,13:20,0.784,1.175,0.826,1.462,1.068,0.464,0.809,0.767,���쓌,2.6,��
2018/09/16,13:30,0.784,1.175,0.828,1.463,1.067,0.463,0.808,0.765,���쓌,3.4,��
2018/09/16,13:40,0.784,1.174,0.827,1.463,1.068,0.463,0.809,0.766,���쓌,2.2,��
2018/09/16,13:50,0.784,1.175,0.828,1.464,1.069,0.462,0.809,0.764,���쓌,2.5,��
2018/09/16,14:00,0.785,1.171,0.827,1.462,1.067,0.463,0.809,0.766,�쓌,2.5,��
2018/09/16,14:10,0.783,1.177,0.828,1.465,1.071,0.461,0.811,0.764,���쓌,2.3,��
2018/09/16,14:20,0.786,1.175,0.831,1.463,1.067,0.462,0.809,0.765,���쓌,2.6,��
2018/09/16,14:30,0.785,1.174,0.828,1.462,1.068,0.463,0.810,0.766,���쓌,2.5,��
2018/09/16,14:40,0.783,1.178,0.828,1.465,1.068,0.462,0.809,0.764,���쓌,2.3,��
2018/09/16,14:50,0.785,1.177,0.829,1.464,1.071,0.462,0.810,0.765,�쓌,3.3,��
2018/09/16,15:00,0.785,1.178,0.829,1.464,1.068,0.464,0.809,0.764,���쓌,3.1,��
2018/09/16,15:10,0.783,1.178,0.829,1.465,1.067,0.462,0.809,0.764,�쓌,2.0,��
2018/09/16,15:20,0.784,1.179,0.831,1.467,1.068,0.461,0.810,0.764,�쓌,2.0,��
2018/09/16,15:30,0.784,1.181,0.829,1.463,1.066,0.462,0.810,0.766,���쓌,1.9,��
2018/09/16,15:40,0.786,1.177,0.827,1.467,1.066,0.462,0.809,0.767,���쓌,2.2,��
2018/09/16,15:50,0.788,1.177,0.830,1.467,1.070,0.462,0.810,0.765,�쓌,2.8,��
2018/09/16,16:00,0.786,1.182,0.831,1.466,1.070,0.462,0.811,0.766,�쓌,3.1,��
2018/09/16,16:10,0.787,1.175,0.833,1.466,1.069,0.463,0.808,0.766,�쓌,2.8,��
2018/09/16,16:20,0.785,1.182,0.831,1.467,1.066,0.463,0.809,0.765,��쓌,3.6,��
2018/09/16,16:30,0.787,1.179,0.830,1.469,1.070,0.464,0.808,0.766,��쓌,3.1,��
2018/09/16,16:40,0.787,1.181,0.833,1.467,1.070,0.463,0.809,0.766,��쓌,3.3,��
2018/09/16,16:50,0.784,1.182,0.831,1.466,1.071,0.464,0.808,0.767,��쓌,3.6,��
2018/09/16,17:00,0.783,1.178,0.834,1.468,1.069,0.464,0.811,0.767,��쓌,4.0,��
2018/09/16,17:10,0.785,1.181,0.833,1.467,1.071,0.465,0.811,0.767,��쓌,3.6,��
2018/09/16,17:20,0.785,1.181,0.832,1.467,1.072,0.463,0.809,0.768,��,2.9,��
2018/09/16,17:30,0.786,1.181,0.832,1.469,1.070,0.463,0.811,0.768,��,3.1,��
2018/09/16,17:40,0.787,1.180,0.832,1.465,1.071,0.463,0.812,0.768,��,3.4,��
2018/09/16,17:50,0.787,1.181,0.833,1.468,1.072,0.463,0.810,0.768,��,2.9,��
2018/09/16,18:00,0.788,1.181,0.834,1.466,1.068,0.464,0.810,0.769,��,2.3,��
2018/09/16,18:10,0.787,1.183,0.833,1.470,1.071,0.463,0.812,0.768,��,3.9,��
2018/09/16,18:20,0.785,1.183,0.835,1.468,1.073,0.464,0.810,0.768,��,3.4,��
2018/09/16,18:30,0.789,1.180,0.833,1.467,1.071,0.464,0.810,0.769,��쓌,3.8,��
2018/09/16,18:40,0.786,1.183,0.833,1.469,1.074,0.464,0.810,0.769,��,3.9,��
2018/09/16,18:50,0.786,1.185,0.832,1.468,1.071,0.465,0.809,0.768,��,3.5,��
2018/09/16,19:00,0.788,1.185,0.834,1.471,1.072,0.464,0.810,0.767,��,3.5,��
2018/09/16,19:10,0.788,1.185,0.834,1.468,1.073,0.464,0.810,0.770,��,3.6,��
2018/09/16,19:20,0.786,1.182,0.834,1.470,1.070,0.464,0.809,0.769,��쓌,4.0,��
2018/09/16,19:30,0.788,1.184,0.833,1.468,1.072,0.464,0.811,0.769,��,4.4,��
2018/09/16,19:40,0.787,1.185,0.833,1.469,1.073,0.465,0.811,0.768,��,3.7,��
2018/09/16,19:50,0.788,1.186,0.833,1.467,1.075,0.464,0.812,0.767,��,3.8,��
2018/09/16,20:00,0.789,1.183,0.835,1.468,1.071,0.464,0.811,0.770,��,3.4,��
2018/09/16,20:10,0.789,1.184,0.833,1.471,1.073,0.465,0.811,0.768,��,3.7,��
2018/09/16,20:20,0.789,1.182,0.834,1.469,1.072,0.464,0.811,0.768,��,3.7,��
2018/09/16,20:30,0.786,1.182,0.833,1.468,1.071,0.464,0.812,0.768,��,4.9,��
2018/09/16,20:40,0.787,1.184,0.835,1.467,1.071,0.465,0.813,0.769,��,5.1,��
2018/09/16,20:50,0.787,1.182,0.835,1.469,1.073,0.465,0.810,0.768,��,5.1,��
2018/09/16,21:00,0.787,1.181,0.834,1.470,1.072,0.466,0.811,0.769,��,4.6,��
2018/09/16,21:10,0.787,1.182,0.835,1.469,1.073,0.464,0.811,0.767,��,3.7,��
2018/09/16,21:20,0.789,1.183,0.834,1.468,1.072,0.465,0.811,0.768,��,4.3,��
2018/09/16,21:30,0.786,1.186,0.834,1.469,1.073,0.466,0.811,0.768,��,4.8,��
2018/09/16,21:40,0.788,1.183,0.834,1.469,1.072,0.465,0.811,0.768,��,4.2,��
2018/09/16,21:50,0.787,1.186,0.833,1.471,1.073,0.464,0.810,0.769,��,4.7,��
2018/09/16,22:00,0.789,1.184,0.834,1.470,1.074,0.466,0.812,0.766,��,4.8,��
2018/09/16,22:10,0.790,1.184,0.835,1.471,1.075,0.467,0.814,0.769,��,4.5,��
2018/09/16,22:20,0.787,1.183,0.833,1.468,1.075,0.464,0.810,0.768,��,6.1,��
2018/09/16,22:30,0.789,1.186,0.834,1.469,1.072,0.465,0.812,0.769,��쐼,5.6,��
2018/09/16,22:40,0.787,1.183,0.834,1.472,1.074,0.466,0.811,0.769,��쐼,6.0,��
2018/09/16,22:50,0.789,1.184,0.834,1.471,1.073,0.466,0.812,0.768,��,6.7,��
2018/09/16,23:00,0.788,1.185,0.835,1.469,1.072,0.466,0.811,0.769,��쐼,6.8,��
2018/09/16,23:10,0.789,1.184,0.833,1.471,1.071,0.465,0.813,0.770,��,6.2,�L
2018/09/16,23:20,0.789,1.184,0.836,1.470,1.074,0.465,0.812,0.768,��,6.6,�L
2018/09/16,23:30,0.789,1.185,0.836,1.467,1.073,0.466,0.811,0.769,��,5.9,��
2018/09/16,23:40,0.789,1.183,0.836,1.469,1.074,0.465,0.812,0.769,��,6.3,��
2018/09/16,23:50,0.789,1.182,0.837,1.471,1.075,0.466,0.810,0.769,��,6.7,��
